Time,TemperatureF,DewpointF,PressureIn,WindDirection,WindDirectionDegrees,WindSpeedMPH,WindSpeedGustMPH,Humidity,HourlyPrecipIn,Conditions,Clouds,dailyrainin,SolarRadiationWatts/m^2,SoftwareType,DateUTC
2013-12-26 00:02:00,39.0,23.0,-100.00,NE,48,3.0,5.0,53,0.00,,,0.00,0.000000,,2013-12-26 05:02:00,
2013-12-26 00:43:00,39.0,23.0,-100.00,NE,48,3.0,5.0,53,0.00,,,0.00,0.000000,,2013-12-26 05:43:00,
2013-12-26 00:53:00,39.0,23.0,-100.00,NE,48,3.0,5.0,53,0.00,,,0.00,0.000000,,2013-12-26 05:53:00,
2013-12-26 01:42:00,37.0,27.0,-100.00,NNE,13,2.0,5.0,68,0.00,,,0.00,0.000000,,2013-12-26 06:42:00,
2013-12-26 01:52:00,37.0,27.0,-100.00,NNE,13,2.0,5.0,68,0.00,,,0.00,0.000000,,2013-12-26 06:52:00,
2013-12-26 02:01:00,37.0,27.0,-100.00,NNE,13,2.0,5.0,68,0.00,,,0.00,0.000000,,2013-12-26 07:01:00,
2013-12-26 02:02:00,37.0,26.0,-100.00,NNE,15,3.0,6.0,64,0.00,,,0.00,0.000000,,2013-12-26 07:02:00,
2013-12-26 02:42:00,37.0,26.0,-100.00,NNE,15,3.0,6.0,64,0.00,,,0.00,0.000000,,2013-12-26 07:42:00,
2013-12-26 02:53:00,37.0,26.0,-100.00,NNE,15,3.0,6.0,64,0.00,,,0.00,0.000000,,2013-12-26 07:53:00,
2013-12-26 03:02:00,36.0,28.0,-100.00,North,8,2.0,5.0,73,0.00,,,0.00,0.000000,,2013-12-26 08:02:00,
2013-12-26 03:42:00,36.0,28.0,-100.00,North,8,2.0,5.0,73,0.00,,,0.00,0.000000,,2013-12-26 08:42:00,
2013-12-26 03:53:00,36.0,28.0,-100.00,North,8,2.0,5.0,73,0.00,,,0.00,0.000000,,2013-12-26 08:53:00,
2013-12-26 04:02:00,35.0,31.0,-100.00,ENE,58,2.0,5.0,85,0.00,,,0.00,0.000000,,2013-12-26 09:02:00,
2013-12-26 04:43:00,35.0,31.0,-100.00,ENE,58,2.0,5.0,85,0.00,,,0.00,0.000000,,2013-12-26 09:43:00,
2013-12-26 04:53:00,35.0,31.0,-100.00,ENE,58,2.0,5.0,85,0.00,,,0.00,0.000000,,2013-12-26 09:53:00,
2013-12-26 05:02:00,36.0,32.0,-100.00,NNW,336,3.0,5.0,85,0.00,,,0.00,0.000000,,2013-12-26 10:02:00,
2013-12-26 05:22:00,36.0,32.0,-100.00,NNW,336,3.0,5.0,85,0.00,,,0.00,0.000000,,2013-12-26 10:22:00,
2013-12-26 05:32:00,36.0,32.0,-100.00,NNW,336,3.0,5.0,85,0.00,,,0.00,0.000000,,2013-12-26 10:32:00,
2013-12-26 05:43:00,36.0,32.0,-100.00,NNW,336,3.0,5.0,85,0.00,,,0.00,0.000000,,2013-12-26 10:43:00,
2013-12-26 05:53:00,36.0,32.0,-100.00,NNW,336,3.0,5.0,85,0.00,,,0.00,0.000000,,2013-12-26 10:53:00,
2013-12-26 06:02:00,36.0,31.0,-100.00,NW,312,2.0,3.0,82,0.00,,,0.00,0.000000,,2013-12-26 11:02:00,
2013-12-26 06:43:00,36.0,31.0,-100.00,NW,312,2.0,3.0,82,0.00,,,0.00,0.000000,,2013-12-26 11:43:00,
2013-12-26 06:52:00,36.0,31.0,-100.00,NW,312,2.0,3.0,82,0.00,,,0.00,0.000000,,2013-12-26 11:52:00,
2013-12-26 07:02:00,37.0,32.0,-100.00,North,357,2.0,4.0,82,0.00,,,0.00,0.000000,,2013-12-26 12:02:00,
2013-12-26 07:42:00,37.0,32.0,-100.00,North,357,2.0,4.0,82,0.00,,,0.00,0.000000,,2013-12-26 12:42:00,
2013-12-26 07:53:00,37.0,32.0,-100.00,North,357,2.0,4.0,82,0.00,,,0.00,0.000000,,2013-12-26 12:53:00,
2013-12-26 08:02:00,37.0,32.0,-100.00,NNW,340,2.0,5.0,82,0.00,,,0.00,2.000000,,2013-12-26 13:02:00,
2013-12-26 08:42:00,37.0,32.0,-100.00,NNW,340,2.0,5.0,82,0.00,,,0.00,2.000000,,2013-12-26 13:42:00,
2013-12-26 08:53:00,37.0,32.0,-100.00,NNW,340,2.0,5.0,82,0.00,,,0.00,2.000000,,2013-12-26 13:53:00,
2013-12-26 09:02:00,39.0,35.0,-100.00,WNW,299,3.0,5.0,85,0.00,,,0.00,78.000000,,2013-12-26 14:02:00,
2013-12-26 09:42:00,39.0,35.0,-100.00,WNW,299,3.0,5.0,85,0.00,,,0.00,78.000000,,2013-12-26 14:42:00,
2013-12-26 09:52:00,39.0,35.0,-100.00,WNW,299,3.0,5.0,85,0.00,,,0.00,78.000000,,2013-12-26 14:52:00,
2013-12-26 10:02:00,44.0,31.0,-100.00,WNW,295,6.0,8.0,59,0.00,,,0.00,293.000000,,2013-12-26 15:02:00,
2013-12-26 10:43:00,44.0,31.0,-100.00,WNW,295,6.0,8.0,59,0.00,,,0.00,293.000000,,2013-12-26 15:43:00,
2013-12-26 10:54:00,44.0,31.0,-100.00,WNW,295,6.0,8.0,59,0.00,,,0.00,293.000000,,2013-12-26 15:54:00,
2013-12-26 11:02:00,48.0,29.0,-100.00,NW,307,5.0,8.0,48,0.00,,,0.00,410.000000,,2013-12-26 16:02:00,
2013-12-26 11:42:00,48.0,29.0,-100.00,NW,307,5.0,8.0,48,0.00,,,0.00,410.000000,,2013-12-26 16:42:00,
2013-12-26 11:53:00,48.0,29.0,-100.00,NW,307,5.0,8.0,48,0.00,,,0.00,410.000000,,2013-12-26 16:53:00,
2013-12-26 12:02:00,49.0,27.0,-100.00,West,280,5.0,11.0,42,0.00,,,0.00,401.000000,,2013-12-26 17:02:00,
2013-12-26 12:43:00,49.0,27.0,-100.00,West,280,5.0,11.0,42,0.00,,,0.00,401.000000,,2013-12-26 17:43:00,
2013-12-26 12:52:00,49.0,27.0,-100.00,West,280,5.0,11.0,42,0.00,,,0.00,401.000000,,2013-12-26 17:52:00,
2013-12-26 13:02:00,53.0,29.0,-100.00,WNW,284,5.0,10.0,39,0.00,,,0.00,475.000000,,2013-12-26 18:02:00,
2013-12-26 13:42:00,53.0,29.0,-100.00,WNW,284,5.0,10.0,39,0.00,,,0.00,475.000000,,2013-12-26 18:42:00,
2013-12-26 13:52:00,53.0,29.0,-100.00,WNW,284,5.0,10.0,39,0.00,,,0.00,475.000000,,2013-12-26 18:52:00,
2013-12-26 14:02:00,54.0,26.0,-100.00,NW,310,6.0,10.0,34,0.00,,,0.00,616.000000,,2013-12-26 19:02:00,
2013-12-26 14:42:00,54.0,26.0,-100.00,NW,310,6.0,10.0,34,0.00,,,0.00,616.000000,,2013-12-26 19:42:00,
2013-12-26 14:52:00,54.0,26.0,-100.00,NW,310,6.0,10.0,34,0.00,,,0.00,616.000000,,2013-12-26 19:52:00,
2013-12-26 15:02:00,56.0,26.0,-100.00,WNW,286,6.0,11.0,31,0.00,,,0.00,512.000000,,2013-12-26 20:02:00,
2013-12-26 15:42:00,56.0,26.0,-100.00,WNW,286,6.0,11.0,31,0.00,,,0.00,512.000000,,2013-12-26 20:42:00,
2013-12-26 15:52:00,56.0,26.0,-100.00,WNW,286,6.0,11.0,31,0.00,,,0.00,512.000000,,2013-12-26 20:52:00,
2013-12-26 16:02:00,57.0,27.0,-100.00,NW,313,4.0,9.0,32,0.00,,,0.00,371.000000,,2013-12-26 21:02:00,
2013-12-26 16:43:00,57.0,27.0,-100.00,NW,313,4.0,9.0,32,0.00,,,0.00,371.000000,,2013-12-26 21:43:00,
2013-12-26 16:53:00,57.0,27.0,-100.00,NW,313,4.0,9.0,32,0.00,,,0.00,371.000000,,2013-12-26 21:53:00,
2013-12-26 17:02:00,50.0,33.0,-100.00,SSW,195,1.0,6.0,51,0.00,,,0.00,112.000000,,2013-12-26 22:02:00,
2013-12-26 17:43:00,50.0,33.0,-100.00,SSW,195,1.0,6.0,51,0.00,,,0.00,112.000000,,2013-12-26 22:43:00,
2013-12-26 17:52:00,50.0,33.0,-100.00,SSW,195,1.0,6.0,51,0.00,,,0.00,112.000000,,2013-12-26 22:52:00,
2013-12-26 18:02:00,43.0,36.0,-100.00,WNW,283,1.0,2.0,76,0.00,,,0.00,10.000000,,2013-12-26 23:02:00,
2013-12-26 18:42:00,43.0,36.0,-100.00,WNW,283,1.0,2.0,76,0.00,,,0.00,10.000000,,2013-12-26 23:42:00,
2013-12-26 18:53:00,43.0,36.0,-100.00,WNW,283,1.0,2.0,76,0.00,,,0.00,10.000000,,2013-12-26 23:53:00,
2013-12-26 19:02:00,41.0,36.0,-100.00,North,-999,0.0,4.0,82,0.00,,,0.00,0.000000,,2013-12-27 00:02:00,
2013-12-26 19:22:00,41.0,36.0,-100.00,North,-999,0.0,4.0,82,0.00,,,0.00,0.000000,,2013-12-27 00:22:00,
2013-12-26 19:32:00,41.0,36.0,-100.00,North,-999,0.0,4.0,82,0.00,,,0.00,0.000000,,2013-12-27 00:32:00,
2013-12-26 19:42:00,41.0,36.0,-100.00,North,-999,0.0,4.0,82,0.00,,,0.00,0.000000,,2013-12-27 00:42:00,
2013-12-26 19:52:00,41.0,36.0,-100.00,North,-999,0.0,4.0,82,0.00,,,0.00,0.000000,,2013-12-27 00:52:00,
2013-12-26 20:42:00,39.0,33.0,-100.00,North,-999,0.0,1.0,80,0.00,,,0.00,0.000000,,2013-12-27 01:42:00,
2013-12-26 20:52:00,39.0,33.0,-100.00,North,-999,0.0,1.0,80,0.00,,,0.00,0.000000,,2013-12-27 01:52:00,
2013-12-26 21:01:00,39.0,33.0,-100.00,North,-999,0.0,1.0,80,0.00,,,0.00,0.000000,,2013-12-27 02:01:00,
2013-12-26 21:02:00,39.0,33.0,-100.00,WSW,254,2.0,3.0,79,0.00,,,0.00,0.000000,,2013-12-27 02:02:00,
2013-12-26 21:42:00,39.0,33.0,-100.00,WSW,254,2.0,3.0,79,0.00,,,0.00,0.000000,,2013-12-27 02:42:00,
2013-12-26 21:52:00,39.0,33.0,-100.00,WSW,254,2.0,3.0,79,0.00,,,0.00,0.000000,,2013-12-27 02:52:00,
2013-12-26 22:02:00,36.0,34.0,-100.00,North,-999,0.0,2.0,92,0.00,,,0.00,0.000000,,2013-12-27 03:02:00,
2013-12-26 22:43:00,36.0,34.0,-100.00,North,-999,0.0,2.0,92,0.00,,,0.00,0.000000,,2013-12-27 03:43:00,
2013-12-26 22:53:00,36.0,34.0,-100.00,North,-999,0.0,2.0,92,0.00,,,0.00,0.000000,,2013-12-27 03:53:00,
2013-12-26 23:02:00,35.0,32.0,-100.00,North,-999,0.0,3.0,90,0.00,,,0.00,0.000000,,2013-12-27 04:02:00,
2013-12-26 23:43:00,35.0,32.0,-100.00,North,-999,0.0,3.0,90,0.00,,,0.00,0.000000,,2013-12-27 04:43:00,
2013-12-26 23:53:00,35.0,32.0,-100.00,North,-999,0.0,3.0,90,0.00,,,0.00,0.000000,,2013-12-27 04:53:00,